User: anonymous   Login
Location: Unspecified
(0.0000°N, 0.0000°E)
Time: 07:13:41
(UTC+01:00)
Language:

Cosmos 2263 Rocket - Orbit

View from above orbital plane
View from above orbital plane
View from above satellite
View from above satellite

Ground track
Ground track

The orbit data is extracted from the following two-line orbital elements,

1 22803U 93059B   17080.95891234 -.00000065 +00000-0 -82655-5 0  9992
2 22803 070.9890 073.2445 0016620 166.2236 193.9344 14.16765536215674
Epoch (UTC): 21 March 2017 23:00:50
Eccentricity: 0.0016620
inclination: 70.9890°
perigee height: 824 km
apogee height: 848 km
right ascension of ascending node: 73.2445°
argument of perigee: 166.2236°
revolutions per day: 14.16765536
mean anomaly at epoch: 193.9344°
orbit number at epoch: 21567

The dashed part of the orbit path shows where the satellite is in the earth's shadow,  

DLR